Location: Prague
(50.0830°N, 14.4670°E)
Time: 11:20:33
(UTC+02:00)

RS-15 - Pass Details

Date: 01 April 2023
Orbit: 1885 x 2159 km, 64.8° (Epoch: 29 May)

Event Time Altitude Azimuth Distance (km) Brightness Sun altitude
Rises 19:42:30 0° 267° (W) 5,681 12.6 -2.2°
Reaches altitude 10° 19:46:19 10° 274° (W) 4,679 12.0 -2.9°
Maximum altitude 19:57:55 44° 344° (NNW) 2,763 9.1 -4.7°
Drops below altitude 10° 20:09:14 10° 55° (NE) 4,559 9.6 -6.4°
Sets 20:12:55 0° 62° (ENE) 5,526 10.0 -7.0°
